Torna al catalogo

EXPRESS 103

AttivoComunicazioniGEO
NORAD 45985·PAYLOAD·🇷🇺 Russia

Lanciato Jul 30, 2020 da Baikonur Cosmodrome

Loading…

TLE

AggiornatoSource: Space-Track

Epoca: Sep 14, 2026, 15:58 UTC

1 45985U 20053A   26257.66549475 -.00000288  00000-0  00000+0 0  9997
2 45985   0.0413 260.7662 0000950 205.4879 223.4688  1.00272671 22541

Traccia EXPRESS 103 in tempo reale con AllMySat

Download on the App Store